User: anonymous   Login
Location: Unspecified
(0.0000°N, 0.0000°E)
Time: 01:56:35
(UTC+00:00)
Language:

FALCON 9 R/B - Orbit

View from above orbital plane
View from above orbital plane
View from above satellite
View from above satellite

Ground track
Ground track

The orbit data is extracted from the following two-line orbital elements,

1 39271U 13055G   17147.78199585 +.00002549 +00000-0 +66424-4 0  9994
2 39271 080.9700 018.7223 0633088 262.6446 090.2415 14.36961481189696
Epoch (UTC): 27 May 2017 18:46:04
Eccentricity: 0.0633088
inclination: 80.9700°
perigee height: 316 km
apogee height: 1221 km
right ascension of ascending node: 18.7223°
argument of perigee: 262.6446°
revolutions per day: 14.36961481
mean anomaly at epoch: 90.2415°
orbit number at epoch: 18969

The dashed part of the orbit path shows where the satellite is in the earth's shadow,  

DLR